Tracking 28799 objects as of 18-Apr-2024
HD Live streaming from Space Station
objects crossing your sky now

ATLAS 2AS CENTAUR R/B

Track ATLAS 2AS CENTAUR R/B now!


NORAD ID: 24937
Int'l Code: 1997-050B
Perigee: 347.4 km
Apogee: 36,837.1 km
Inclination: 18.6 °
Period: 654.2 minutes
Semi major axis: 24963 km
RCS: 13.7884 m2 (large)
Launch date: September 4, 1997
Source: United States (US)
Launch site: AIR FORCE EASTERN TEST RANGE (AFETR)

Note: This is a ROCKET BODY
Your satellite tracking list
Your tracking list is empty




NASA's NSSDC Master Catalog

Two Line Element Set (TLE):
1 24937U 97050B   24108.12854795  .00004548  00000-0  63750-2 0  9996
2 24937  18.6323 251.6474 7308690 136.5049 312.5161  2.20115878197392
Source of the keplerian elements: AFSPC